Regional Weather Roundup
Issued by NWS

Home | Current Version | Previous Version | Graphics & Text | Print | Product List | Glossary Off
Versions: 1 2 3 4 5 6 7 8 9 10 11 12 13 14 15 16 17 18 19 20 21 22 23 24 25 26 27 28 29 30 31 32 33 34 35 36 37 38 39 40 41 42 43 44 45 46 47 48 49 50

932
ASUS43 KTOP 220808
RWRKS

WEATHER ROUNDUP FOR KANSAS
NATIONAL WEATHER SERVICE GOODLAND KS
300 AM CDT TUE AUG 22 2017

NOTE:  "FAIR" INDICATES FEW OR NO CLOUDS BELOW 12,000 FEET WITH NO
SIGNIFICANT WEATHER AND/OR OBSTRUCTIONS TO VISIBILITY.

KSZ001>006-013>018-027>032-041>047-220900-
NORTHWEST KANSAS

CITY           SKY/WX    TMP DP  RH WIND       PRES   REMARKS
GOODLAND       PTCLDY    66  64  93 N9        30.19R
HAYS           CLEAR     71  67  87 N14       30.02R
HILL CITY      CLEAR     70  65  84 NE9       30.08R
RUSSELL        CLEAR     72  68  87 N14       29.99R
$$

KSZ061>065-074>080-084>089-220900-
SOUTHWEST KANSAS

CITY           SKY/WX    TMP DP  RH WIND       PRES   REMARKS
DODGE CITY     CLEAR     72  66  81 SW10      30.04R
ELKHART          N/A     68  66  93 SW8         N/A
GARDEN CITY    CLEAR     70  66  87 N13       30.08R
GREAT BEND     PTCLDY    72  69  90 W6        30.00R
LIBERAL        CLEAR     69  65  86 SW8       30.08
PRATT          PTCLDY    73  67  79 SW12      30.01S
$$

KSZ066>073-081>083-090>101-220900-
SOUTHEAST KANSAS

CITY           SKY/WX    TMP DP  RH WIND       PRES   REMARKS
CHANUTE        PTCLDY    80  73  79 SW17      29.95F
COFFEYVILLE    PTCLDY    80  73  79 S14       29.96F
HUTCHINSON     CLEAR     77  69  76 SW8       29.97S
MEDICINE LODGE   N/A     74  68  81 MISG      30.00S
NEWTON         CLEAR     78  69  73 SW17      29.97S
PARSONS        PTCLDY    80  72  76 S9        29.98F
WICHITA INTL   MOCLDY    78  71  79 SW17      29.97S
WICHITA JABRA  CLEAR     78  71  79 SW14G23   29.97F
WICHITA MCCONL CLEAR     77  69  76 SW12      29.98S
WINFIELD       CLOUDY    79  69  71 SW14      30.00S
$$

KSZ007>012-019>026-033>040-048>060-102>105-220900-
NORTHEAST KANSAS

CITY           SKY/WX    TMP DP  RH WIND       PRES   REMARKS
CONCORDIA      PTCLDY    69  67  93 NE15G23   29.99R
EMPORIA        CLOUDY    78  71  79 SW20G35   29.93F
LAWRENCE       TSTM      67  66  97 N21G38    29.98R
MANHATTAN      CLOUDY    74  73  97 E13       29.96R
MARYSVILLE     MOCLDY    66  64  94 NE5       30.00R
OLATHE IND     TSTM      69  69 100 E5        29.97R FOG
OLATHE EXE     TSTM      68  68 100 N10       30.00R FOG
SALINA         MOCLDY    78  70  76 SW8       29.93S
TOPEKA BILLARD HVY RAIN  67  67 100 NE14G25   29.98R FOG
TOPEKA FORBES  HVY RAIN  68  67  96 NE20G35   29.97R FOG
$$




USA.gov is the U.S. government's official web portal to all federal, state and local government web resources and services.